Burns, OR

7:55 AM PDT on May 28, 2017 (GMT -0700)
Burns Municipal

Weather History for KBNO - November, 2012

Change the Weather History Date:

Friday, November 9, 2012

  Actual Average Record
Temperature  
Mean Temperature 28 °F 36 °F  
Max Temperature 39 °F 49 °F 68 °F (2016)
Min Temperature 17 °F 24 °F 10 °F (1952)
Degree Days  
Heating Degree Days 37 29  
Month to date heating degree days 209 247  
Since 1 July heating degree days 1034 1297  
Cooling Degree Days 0 0  
Month to date cooling degree days 0 0  
Year to date cooling degree days 309 215  
Moisture  
Dew Point 21 °F    
Average Humidity 72    
Maximum Humidity 92    
Minimum Humidity 52    
Precipitation  
Precipitation 0.01 in 0.04 in 0.31 in (1949)
Month to date precipitation 0.02 0.32  
Year to date precipitation 7.22 8.52  
Sea Level Pressure  
Sea Level Pressure 29.80 in    
Wind  
Wind Speed 6 mph (WSW)    
Max Wind Speed 14 mph    
Max Gust Speed 21 mph    
Visibility 9 miles    
Events      
T = Trace of Precipitation, MM = Missing Value Source: NWS Daily Summary

Daily Weather History Graph

Daily Weather History Graph

Search for Another Location

Airport or City:

Trip Planner

Search our weather history database for the weather conditions in past years. The results will help you decide how hot, cold, wet, or windy it might be!

Date:

Astronomy

Nov. 09, 2012 Rise Set
Actual Time 6:42 AM PST 4:36 PM PST
Civil Twilight 6:12 AM PST 5:06 PM PST
Nautical Twilight 5:37 AM PST 5:41 PM PST
Astronomical Twilight 5:04 AM PST 6:14 PM PST
Moon 1:38 AM PST (11/9) 1:59 PM PST (11/9)
Length of Visible Light 10h 54m
Length of Day
9h 53m
Waning Crescent, 22% of the Moon is Illuminated
Nov 9
Waning Crescent
Nov 13
New
Nov 20
First Quarter
Nov 28
Full
Dec 6
Last Quarter

Hourly Weather History & Observations

Time (PST) Temp. Windchill Dew Point Humidity Pressure Visibility Wind Dir Wind Speed Gust Speed Precip Events Conditions
12:53 AM 28.9 °F 25.2 °F 27.0 °F 92% 29.71 in 7.0 mi SW 3.5 mph - 0.00 in   Overcast
1:53 AM 28.9 °F 23.9 °F 27.0 °F 92% 29.73 in 10.0 mi SW 4.6 mph - N/A   Overcast
2:53 AM 28.9 °F 23.9 °F 27.0 °F 92% 29.74 in 10.0 mi SSW 4.6 mph - N/A   Overcast
3:53 AM 26.1 °F 18.4 °F 24.1 °F 92% 29.75 in 9.0 mi WSW 6.9 mph - N/A   Overcast
4:53 AM 24.1 °F 18.2 °F 21.0 °F 88% 29.78 in 10.0 mi West 4.6 mph - N/A   Overcast
5:53 AM 24.1 °F 15.2 °F 19.9 °F 84% 29.81 in 10.0 mi West 8.1 mph - N/A   Overcast
6:53 AM 21.0 °F 10.6 °F 18.0 °F 88% 29.82 in 9.0 mi West 9.2 mph - N/A   Mostly Cloudy
7:53 AM 25.0 °F 14.8 °F 21.9 °F 88% 29.83 in 10.0 mi West 10.4 mph - N/A   Mostly Cloudy
8:53 AM 28.9 °F 21.1 °F 23.0 °F 78% 29.82 in 10.0 mi WNW 8.1 mph - N/A   Overcast
9:53 AM 33.1 °F 24.9 °F 21.9 °F 64% 29.82 in 10.0 mi West 10.4 mph - N/A   Mostly Cloudy
10:53 AM 34.0 °F 28.0 °F 21.0 °F 59% 29.81 in 10.0 mi West 6.9 mph - N/A   Overcast
11:53 AM 37.0 °F 33.3 °F 21.0 °F 52% 29.78 in 10.0 mi West 4.6 mph - N/A   Scattered Clouds
12:53 PM 37.0 °F 29.8 °F 21.0 °F 52% 29.78 in 10.0 mi West 10.4 mph 20.7 mph N/A   Mostly Cloudy
1:53 PM 36.0 °F 32.1 °F 21.0 °F 55% 29.76 in 10.0 mi SW 4.6 mph - 0.00 in   Scattered Clouds
2:53 PM 34.0 °F 28.0 °F 21.9 °F 61% 29.77 in 10.0 mi SSW 6.9 mph - 0.01 in   Scattered Clouds
3:53 PM 33.1 °F 28.7 °F 21.0 °F 61% 29.78 in 9.0 mi WSW 4.6 mph - 0.00 in   Mostly Cloudy
4:53 PM 28.9 °F 22.8 °F 21.9 °F 75% 29.81 in 6.0 mi WSW 5.8 mph - N/A   Haze
5:53 PM 24.1 °F 16.0 °F 19.0 °F 81% 29.83 in 9.0 mi West 6.9 mph - N/A   Scattered Clouds
6:53 PM 23.0 °F 14.7 °F 19.0 °F 85% 29.85 in 9.0 mi WSW 6.9 mph - N/A   Mostly Cloudy
7:53 PM 21.0 °F 16.2 °F 17.1 °F 85% 29.85 in 10.0 mi WSW 3.5 mph - N/A   Overcast
8:53 PM 21.9 °F 13.4 °F 19.0 °F 89% 29.84 in 8.0 mi West 6.9 mph - N/A   Overcast
9:53 PM 19.0 °F 10.0 °F 17.1 °F 92% 29.84 in 8.0 mi West 6.9 mph - N/A   Clear
10:53 PM 19.9 °F - 17.1 °F 89% 29.84 in 10.0 mi Calm Calm - N/A   Scattered Clouds
11:53 PM 18.0 °F 11.1 °F 15.1 °F 88% 29.84 in 9.0 mi West 4.6 mph - N/A   Clear